CW9371 Weather Reports


Display with metric or nautical units.
time (UTC)temp
F
wind
direction
speed
MPH
gust
MPH
rain 1hr
in
rain 24hr
in
rain mn
in
humidity
%
barometer
mb
20260510213040 46 293 6.0 0.0 0.00 0.00 0.00 53 1019.0
20260510211541 46 297 6.0 0.0 0.00 0.00 0.00 53 1018.9
20260510210037 46 7 5.0 0.0 0.00 0.00 0.00 51 1018.6
20260510204535 47 315 6.0 0.0 0.00 0.00 0.00 52 1018.3
20260510203035 47 279 5.0 0.0 0.00 0.00 0.00 53 1018.3
20260510201535 46 299 5.0 0.0 0.00 0.00 0.00 57 1018.3
20260510200034 46 330 5.0 0.0 0.00 0.00 0.00 54 1018.3
20260510194532 46 342 6.0 0.0 0.00 0.00 0.00 53 1018.3
20260510193031 47 296 7.0 0.0 0.00 0.00 0.00 52 1018.3
20260510191530 48 302 6.0 0.0 0.00 0.00 0.00 51 1018.0
20260510190036 45 284 7.0 0.0 0.00 0.00 0.00 53 1018.1
20260510184530 46 304 9.0 0.0 0.00 0.00 0.00 53 1017.9
20260510183030 46 279 8.0 0.0 0.00 0.00 0.00 51 1017.7
20260510181528 46 285 9.0 0.0 0.00 0.00 0.00 51 1017.6
20260510180025 46 295 9.0 0.0 0.00 0.00 0.00 51 1017.2
20260510174525 47 262 9.0 0.0 0.00 0.00 0.00 48 1017.5
20260510173022 47 241 8.0 0.0 0.00 0.00 0.00 49 1017.1
20260510171521 48 266 8.0 0.0 0.00 0.00 0.00 44 1017.1
20260510170022 48 278 7.0 0.0 0.00 0.00 0.00 44 1016.9
20260510164519 48 313 9.0 0.0 0.00 0.00 0.00 45 1016.9
20260510163018 48 271 7.0 0.0 0.00 0.00 0.00 46 1016.8
20260510161518 47 288 8.0 0.0 0.00 0.00 0.00 47 1016.7
20260510160015 47 282 7.0 0.0 0.00 0.00 0.00 48 1016.7
20260510154512 46 232 7.0 0.0 0.00 0.00 0.00 49 1016.5
20260510153030 46 270 8.0 0.0 0.00 0.00 0.00 49 1016.5
20260510151507 45 284 8.0 0.0 0.00 0.00 0.00 49 1016.4
20260510150006 45 316 10.0 0.0 0.00 0.00 0.00 50 1016.2
20260510144508 45 281 5.0 0.0 0.00 0.00 0.00 53 1016.1
20260510143001 44 285 8.0 0.0 0.00 0.00 0.00 55 1015.9
20260510141600 44 276 5.0 0.0 0.00 0.00 0.00 56 1015.9
20260510140055 43 308 6.0 0.0 0.00 0.00 0.00 58 1015.8
20260510134556 42 327 5.0 0.0 0.00 0.00 0.00 61 1015.8
20260510133051 41 266 5.0 0.0 0.00 0.00 0.00 66 1015.8
20260510131547 40 327 4.0 0.0 0.00 0.00 0.00 69 1015.6
20260510130049 40 351 5.0 0.0 0.00 0.00 0.00 70 1015.5
20260510124556 39 256 3.0 0.0 0.00 0.00 0.00 71 1015.3
20260510123040 38 257 3.0 0.0 0.00 0.00 0.00 76 1015.2
20260510121541 37 278 2.0 0.0 0.00 0.00 0.00 79 1015.1
20260510120037 35 258 1.0 0.0 0.00 0.00 0.00 81 1015.0
20260510114536 34 308 0.0 0.0 0.00 0.00 0.00 84 1014.9
20260510113038 33 272 0.0 0.0 0.00 0.00 0.00 86 1014.7
20260510111532 32 272 0.0 0.0 0.00 0.00 0.00 89 1014.3
20260510110040 31 272 0.0 0.0 0.00 0.00 0.00 89 1014.1
20260510104530 30 272 0.0 0.0 0.00 0.00 0.00 89 1014.0
20260510103028 30 272 0.0 0.0 0.00 0.00 0.00 90 1013.8
20260510101533 30 272 0.0 0.0 0.00 0.00 0.00 89 1013.4
20260510100025 30 272 0.0 0.0 0.00 0.00 0.00 90 1013.2
20260510094525 29 272 0.0 0.0 0.00 0.00 0.00 91 1013.0
20260510093022 29 272 0.0 0.0 0.00 0.00 0.00 90 1012.7
20260510091526 29 272 0.0 0.0 0.00 0.00 0.00 90 1012.5
20260510090023 29 272 0.0 0.0 0.00 0.00 0.00 89 1012.4
20260510084516 30 272 0.0 0.0 0.00 0.00 0.00 88 1012.2
20260510083012 31 272 0.0 0.0 0.00 0.00 0.00 87 1011.9
20260510081512 31 272 0.0 0.0 0.00 0.00 0.00 87 1011.9
20260510080011 32 272 0.0 0.0 0.00 0.00 0.00 88 1011.9
20260510074510 31 272 0.0 0.0 0.00 0.00 0.00 88 1011.7
20260510073011 30 289 0.0 0.0 0.00 0.00 0.00 87 1011.7
20260510071507 31 289 0.0 0.0 0.00 0.00 0.00 85 1011.4
20260510070004 31 289 0.0 0.0 0.00 0.00 0.00 84 1011.2
20260510064505 32 289 0.0 0.0 0.00 0.00 0.00 84 1011.1
20260510063059 33 289 0.0 0.0 0.00 0.00 0.00 81 1010.9
20260510061557 33 289 0.0 0.0 0.00 0.00 0.00 80 1010.9
20260510060052 34 289 0.0 0.0 0.00 0.00 0.00 79 1010.7
20260510054551 35 289 0.0 0.0 0.00 0.00 0.00 78 1010.7
20260510053047 35 289 0.0 0.0 0.00 0.00 0.00 76 1010.6
20260510051550 36 289 0.0 0.0 0.00 0.00 0.00 73 1010.5
20260510050047 37 284 0.0 0.0 0.00 0.00 0.00 73 1010.3
20260510044542 37 303 0.0 0.0 0.00 0.00 0.00 70 1010.0
20260510043038 37 303 1.0 0.0 0.00 0.00 0.00 69 1010.0
20260510041536 38 279 2.0 0.0 0.00 0.00 0.00 68 1009.9
20260510040032 38 295 2.0 0.0 0.00 0.00 0.00 66 1009.7
20260510034530 39 324 2.0 0.0 0.00 0.00 0.00 66 1009.7
20260510033028 39 317 1.0 0.0 0.00 0.00 0.00 65 1009.4
20260510031525 39 291 1.0 0.0 0.00 0.00 0.00 65 1009.1
20260510030025 40 289 1.0 0.0 0.00 0.00 0.00 66 1009.1
20260510024521 40 322 1.0 0.0 0.00 0.00 0.00 64 1008.8
20260510023018 41 275 1.0 0.0 0.00 0.00 0.00 64 1008.8
20260510021523 41 293 1.0 0.0 0.00 0.00 0.00 63 1008.8
20260510020013 42 273 2.0 0.0 0.00 0.00 0.00 62 1008.6
20260510014510 42 322 3.0 0.0 0.00 0.00 0.00 61 1008.1
20260510013008 43 31 2.0 0.0 0.00 0.00 0.00 61 1007.7
20260510011503 44 292 3.0 0.0 0.00 0.00 0.00 60 1007.5
20260510010100 44 312 2.0 0.0 0.00 0.00 0.00 59 1007.1
20260510010001 44 293 2.0 0.0 0.00 0.00 0.00 58 1007.0
20260510004556 45 308 2.0 0.0 0.00 0.00 0.00 54 1006.6
20260510003104 46 313 2.0 0.0 0.00 0.00 0.00 53 1006.4
20260510001549 47 304 3.0 0.0 0.00 0.00 0.00 49 1005.9
20260510000047 49 327 4.0 0.0 0.00 0.00 0.00 44 1005.5
20260509234545 51 296 4.0 0.0 0.00 0.00 0.00 39 1005.0
20260509233041 52 360 4.0 0.0 0.00 0.00 0.00 37 1004.5
20260509231539 52 296 5.0 0.0 0.00 0.00 0.00 39 1004.3
20260509230046 52 4 7.0 0.0 0.00 0.00 0.00 40 1004.0
20260509224546 53 308 6.0 0.0 0.00 0.00 0.00 37 1003.7
20260509223036 53 299 6.0 0.0 0.00 0.00 0.00 40 1003.3
20260509221535 52 250 6.0 0.0 0.00 0.00 0.00 42 1003.1
20260509220033 50 259 4.0 0.0 0.00 0.00 0.00 45 1003.0
20260509214537 50 280 6.0 0.0 0.00 0.00 0.00 45 1003.0